Temp
23 24 25 27 30 32 30 29 30 29 29 31 31 31 30 30 30 28 27 25 25 25 24 22 21 21 21 21 21 21 21 21 21 21 21 21 21 21 21 21 21 21 21 21 21 21 20 20 20
25 24 26 29 29 31 29 30 29 30 30 31 31 31 31 28 28 28 26 25 25 25 25 24 22 21 21 21 21 20 21 21 21 21 21 21 21 21 21 21 21 21 21 21 21 21 21 21 20
25 23 28 25 28 31 29 30 30 30 31 30 30 31 29 27 28 28 26 25 26 25 25 22 21 21 20 21 21 21 20 21 21 21 21 21 21 21 21 21 21 21 21 21 21 21 21 20 20
26 27 25 25 30 28 30 30 31 30 30 30 30 28 27 28 27 27 25 26 26 25 26 22 21 21 21 21 20 20 20 20 21 21 21 21 21 21 21 21 21 21 21 21 21 21 21 21 20
27 23 25 26 29 29 31 30 31 30 29 30 30 28 27 26 26 26 26 27 26 26 25 23 21 21 21 21 20 20 20 21 21 21 21 21 21 21 21 21 21 21 21 21 21 21 21 21 20
27 24 26 29 29 29 29 30 31 31 30 29 30 29 27 26 26 26 26 26 26 27 26 23 21 21 20 20 20 20 20 20 21 21 21 22 22 21 21 21 21 21 21 21 21 21 20 20 20
26 25 28 28 28 28 29 30 31 31 31 30 31 29 27 27 26 26 26 26 26 26 26 25 24 21 20 21 20 20 20 20 20 21 21 21 21 21 21 21 21 21 21 21 22 21 21 21 21
28 25 26 27 27 29 29 30 31 31 30 31 31 28 26 27 25 26 26 26 26 26 25 25 24 24 24 22 20 20 20 21 21 21 21 21 21 22 21 22 21 21 21 21 22 22 22 21 21
27 27 25 27 27 28 28 30 31 32 30 30 30 31 27 26 26 26 26 26 26 26 26 26 25 23 22 22 21 21 20 21 22 22 22 23 24 23 22 22 21 21 22 22 22 22 22 22 22
28 28 27 31 30 30 30 31 30 30 29 29 30 29 27 26 27 27 27 27 26 26 26 25 25 25 24 24 23 23 23 24 23 23 23 24 23 23 24 22 22 23 23 23 23 22 23 23 24
29 28 30 31 31 31 30 30 31 31 29 30 29 28 27 27 27 28 28 27 27 26 26 25 24 23 24 23 24 24 24 23 23 23 24 24 24 24 24 23 24 24 24 25 24 24 25 23 25
29 30 30 32 32 31 30 31 30 31 31 31 30 29 28 28 28 28 28 27 27 26 25 25 24 22 24 24 25 24 24 24 24 23 23 23 24 24 25 25 24 25 25 24 25 25 24 24 24
29 30 31 32 31 29 30 30 30 29 30 31 30 29 29 29 29 28 28 27 26 26 25 25 23 23 23 24 24 24 24 25 24 24 23 24 24 24 24 24 25 25 25 25 25 25 25 25 25
30 30 31 31 29 28 30 30 31 29 30 30 29 30 30 30 29 28 28 27 26 26 25 24 23 23 23 23 23 24 25 24 25 25 23 23 24 24 24 24 25 25 26 25 25 25 26 27 27
28 30 30 30 29 29 29 28 28 29 30 29 30 30 30 30 29 28 28 27 27 26 25 24 24 23 23 23 23 25 25 25 25 24 23 23 24 23 24 25 25 25 24 25 25 26 26 27 27
29 31 28 28 29 26 25 27 26 27 29 29 30 30 30 30 29 28 28 27 27 26 25 24 25 24 24 24 24 25 25 25 25 25 24 23 23 23 24 25 25 25 25 26 26 27 27 27 28
26 29 30 28 28 25 24 25 26 24 26 30 30 30 30 30 29 28 28 27 27 26 25 25 25 24 24 23 24 24 24 25 25 25 25 23 23 23 25 25 25 24 25 26 27 27 27 27 28
26 30 32 30 27 24 23 22 25 22 24 30 31 31 31 30 30 29 28 28 27 26 25 25 25 24 23 23 23 25 25 25 25 25 25 23 24 23 25 25 24 25 26 26 26 26 27 27 27
29 27 32 32 28 23 24 23 23 22 23 30 31 31 31 31 30 29 28 28 27 26 25 25 24 23 23 23 25 25 26 25 25 25 23 23 24 23 24 25 24 25 26 25 25 27 26 28 27
32 31 32 32 30 29 23 23 23 23 23 28 30 31 31 31 31 30 29 28 28 26 26 25 24 23 23 24 25 25 26 25 25 25 24 24 24 23 24 24 25 25 26 25 25 25 28 28 27
33 33 33 31 27 28 26 24 24 23 22 26 30 32 32 31 32 31 29 29 28 27 26 25 24 24 23 24 24 23 24 24 24 24 24 24 24 24 24 24 25 24 25 26 25 26 26 29 27
33 33 33 30 30 26 26 25 25 24 22 24 29 31 31 31 32 31 30 29 29 28 26 25 24 24 23 23 24 23 23 24 24 26 26 25 24 24 24 24 24 24 26 25 25 26 26 26 28
32 33 33 33 31 28 27 29 27 23 24 27 29 31 32 32 33 32 31 30 29 28 27 26 25 24 24 23 24 24 24 24 25 26 24 25 24 24 24 23 24 24 25 24 25 25 25 27 28
32 32 32 33 32 30 30 30 27 28 27 29 30 31 32 33 33 32 31 30 30 29 28 27 25 24 23 23 23 23 24 24 23 24 25 26 26 24 24 24 24 24 24 24 25 24 25 26 26
31 32 30 30 31 32 33 31 31 29 29 30 29 30 31 33 33 32 31 30 29 29 27 27 25 24 24 23 24 23 24 23 24 24 24 26 25 25 24 23 23 24 23 24 24 24 24 25 26
30 32 31 28 31 33 31 31 32 32 29 29 31 30 31 32 33 32 27 26 26 28 27 23 25 25 24 24 24 23 23 24 24 25 24 24 25 25 25 24 24 24 24 24 24 25 25 25 25
31 30 33 32 32 33 33 33 28 28 28 29 30 30 31 31 32 32 30 29 27 26 24 24 23 25 24 24 24 23 23 23 25 23 23 24 24 26 24 24 24 24 24 24 24 25 24 25 25
32 33 31 32 30 31 33 32 32 28 28 25 29 30 32 31 31 31 30 28 24 22 23 24 24 23 23 24 25 23 24 24 24 24 23 24 24 24 24 24 24 24 24 23 23 25 24 24 25
31 31 32 34 33 33 32 33 32 31 29 25 24 24 26 29 29 28 28 28 26 22 20 21 21 22 23 22 23 23 24 24 24 24 24 24 24 23 23 23 24 24 24 24 23 24 24 24 24
33 32 32 32 31 33 33 32 28 29 28 27 23 23 22 22 21 22 24 24 23 23 20 21 21 20 21 22 21 22 23 23 24 23 24 23 23 23 23 23 23 24 24 24 23 24 25 24 24
Height
792 793 791 787 792 779 798 807 797 806 805 797 798 799 806 806 808 831 828 833 836 838 842 844 845 845 846 848 846 847 847 848 848 848 849 850 851 851 852 852 854 855 855 856 856 855 855 855 855
794 793 790 783 795 794 809 795 804 798 798 799 801 801 802 820 815 823 831 835 837 838 841 845 846 847 847 847 849 849 849 850 851 852 853 853 854 853 854 856 857 858 858 858 859 858 858 858 858
794 793 788 803 800 797 807 798 799 799 798 801 804 799 807 825 823 825 833 836 837 841 843 847 847 848 849 849 849 851 852 853 854 854 855 856 855 856 858 860 860 860 860 861 861 861 860 861 861
791 791 799 812 797 801 792 794 794 802 803 803 802 816 820 822 826 829 835 837 839 843 845 849 849 850 851 851 852 852 854 855 856 856 857 857 858 860 862 862 861 862 862 862 863 863 863 863 863
790 798 810 814 800 797 789 791 795 805 806 804 801 819 825 828 830 833 837 838 841 844 847 851 851 853 854 854 854 854 855 856 857 858 860 861 862 862 863 864 865 865 865 864 865 865 865 865 866
795 797 812 805 800 798 796 792 794 801 805 807 810 818 825 832 833 835 838 841 843 844 848 853 853 854 855 856 856 857 858 859 860 861 862 864 864 864 866 866 866 867 867 867 867 868 868 869 870
797 802 799 803 804 804 799 791 796 797 803 807 804 818 829 831 835 837 839 843 845 847 849 853 855 856 857 858 859 859 860 861 862 864 865 866 867 868 868 869 869 869 870 870 870 871 871 871 872
787 799 806 802 810 802 794 794 790 797 803 802 803 820 832 829 837 839 842 845 847 848 852 854 856 857 859 860 862 862 862 863 864 866 867 868 868 869 871 871 873 873 873 874 873 873 873 873 874
789 800 811 802 805 798 795 797 793 792 804 802 806 805 824 831 837 840 843 846 849 851 852 854 857 860 861 862 863 864 865 865 866 867 868 869 871 874 874 873 875 875 875 875 874 874 875 876 876
789 796 798 775 780 787 790 791 797 802 807 809 808 816 827 833 836 838 842 845 849 852 853 856 858 860 861 863 865 867 867 868 870 870 871 872 874 874 875 876 876 876 876 877 876 876 877 878 878
783 796 779 775 774 778 787 793 793 799 809 807 813 819 826 832 835 838 842 845 848 853 855 858 861 863 863 865 866 867 869 871 872 873 872 874 875 876 877 878 879 879 878 878 879 878 878 880 879
787 777 777 771 772 781 791 790 797 798 799 800 810 818 825 830 833 837 841 845 850 854 857 859 862 865 865 867 868 869 870 872 873 874 875 876 877 878 879 879 881 881 880 881 880 880 880 880 881
785 778 774 771 778 791 788 794 799 804 801 803 812 820 825 829 833 837 841 846 850 854 857 860 863 866 868 868 869 871 873 872 875 876 876 877 878 880 881 882 882 882 882 882 882 881 881 881 881
777 776 775 775 789 797 796 798 797 806 805 810 816 819 824 828 833 838 842 847 851 854 858 861 864 867 869 870 872 873 874 875 876 877 878 879 880 881 882 883 883 883 883 883 883 883 882 881 881
782 785 783 785 793 799 800 813 812 806 808 815 817 819 823 828 833 838 842 847 850 854 858 862 865 868 870 872 873 874 875 876 877 879 880 881 882 882 883 883 884 884 885 885 884 883 883 882 882
786 780 804 797 794 810 814 824 818 813 811 815 816 820 825 829 833 838 843 846 851 854 859 863 864 868 870 872 874 875 877 877 878 880 881 882 883 884 884 884 885 886 885 885 885 883 883 882 882
800 799 794 804 796 810 822 829 817 822 820 813 816 819 824 828 833 839 843 847 851 855 859 863 865 868 870 873 875 876 878 878 879 880 881 883 884 884 885 884 886 886 885 885 884 885 884 884 882
811 790 777 793 806 814 829 835 820 826 826 812 814 817 821 826 830 837 842 847 851 856 860 863 866 869 871 873 875 876 878 879 880 880 881 883 884 885 885 885 886 886 885 885 885 886 885 885 884
788 802 782 780 796 816 825 829 827 828 830 812 812 815 819 824 829 835 841 846 850 855 859 863 865 868 871 873 874 875 876 878 880 880 881 883 884 884 885 885 886 886 886 887 887 886 886 883 884
771 780 778 779 785 800 826 831 828 828 827 815 810 812 816 821 825 833 838 843 847 853 857 862 865 867 870 871 873 874 875 877 878 880 881 882 883 884 884 885 886 886 887 888 887 887 884 884 885
771 770 775 787 804 804 817 834 832 828 827 820 810 808 812 821 820 828 835 839 844 849 855 859 863 866 869 871 874 875 876 877 878 878 879 881 882 883 884 885 885 886 886 886 888 887 886 883 885
779 768 771 787 798 830 816 847 828 828 830 825 814 807 811 814 817 823 831 836 841 846 852 857 862 865 868 871 873 875 876 877 876 876 877 879 881 882 884 884 885 886 886 887 888 888 887 885 883
774 768 772 776 786 810 821 819 824 827 825 816 809 804 803 808 811 818 826 831 837 843 848 854 859 864 867 870 872 874 875 876 875 875 877 880 880 881 882 884 885 885 886 887 888 888 888 887 885
773 775 777 774 781 809 803 808 826 819 811 801 803 800 800 801 807 815 822 829 834 840 847 852 857 861 865 868 871 873 875 876 876 876 876 877 878 880 881 883 883 885 886 887 887 889 889 889 888
782 783 809 812 803 798 777 802 794 797 795 791 798 798 799 798 803 810 819 826 831 837 844 849 854 859 863 866 870 872 874 876 876 876 877 876 877 879 880 882 883 884 885 886 887 888 890 889 889
786 781 795 829 806 791 790 805 787 776 787 788 782 792 794 798 801 806 818 827 832 835 841 848 852 857 861 864 867 870 873 874 875 876 877 877 877 878 879 881 882 883 885 886 887 888 888 889 889
779 793 769 786 781 780 780 780 790 786 788 785 785 787 788 793 797 804 813 820 828 834 841 845 851 857 860 863 865 868 871 873 873 875 876 876 878 876 879 880 881 882 883 885 885 886 888 888 889
765 764 789 785 807 807 781 784 785 792 788 797 785 784 782 790 796 803 810 819 828 833 838 842 851 854 858 861 863 866 869 871 873 875 876 876 876 876 878 879 880 881 882 884 884 885 886 887 887
778 775 770 765 773 785 794 782 764 772 783 797 800 801 796 792 799 808 812 816 824 832 836 838 849 854 855 858 861 862 866 868 870 872 874 874 875 875 875 878 878 880 881 882 883 885 885 886 886
754 765 767 780 785 773 770 776 774 774 781 791 804 806 811 813 816 817 818 821 826 830 836 840 844 847 851 856 859 860 863 865 867 869 871 873 873 874 875 875 876 878 878 880 881 882 882 884 884
Wind_Speed
2 2 4 6 4 2 9 7 14 12 15 9 10 5 11 11 8 11 22 13 16 16 14 11 9 8 9 9 9 10 10 11 11 11 12 13 14 16 16 17 17 16 17 17 18 18 17 17 17
3 3 5 3 2 11 8 11 15 11 13 16 8 7 5 12 11 17 16 17 17 16 15 11 10 10 10 11 11 11 11 11 11 11 12 12 14 17 17 16 16 16 17 17 17 18 17 17 16
3 2 3 3 2 9 11 13 12 15 20 9 6 10 7 6 16 10 21 18 16 13 13 11 12 10 10 10 11 12 11 11 12 10 11 12 14 15 15 15 16 16 16 14 15 15 15 14 15
3 3 2 3 11 7 15 14 15 19 13 3 11 10 8 8 8 16 19 17 16 13 13 10 11 10 11 11 12 12 12 11 12 11 12 13 14 14 14 14 15 15 14 12 13 12 10 10 13
4 3 2 4 8 10 12 13 17 19 11 12 1 8 13 8 14 21 19 16 15 13 12 11 11 11 12 12 11 12 12 12 12 12 12 13 14 15 15 14 14 15 16 14 14 15 16 15 12
2 2 2 6 9 9 8 11 17 16 12 10 14 17 11 12 21 19 17 15 13 13 12 11 10 12 11 11 12 12 13 12 13 13 13 14 15 15 14 15 15 15 17 18 16 15 14 12 12
3 2 1 5 10 8 10 10 12 12 10 9 10 13 11 17 18 18 16 14 12 12 12 11 11 10 12 12 13 12 13 13 14 14 15 15 16 15 14 14 14 14 15 14 15 14 14 14 12
4 3 5 3 11 8 11 11 10 12 9 10 12 8 14 22 20 17 15 14 12 11 12 11 10 9 11 10 12 13 13 14 15 15 15 15 15 16 15 14 14 12 12 13 14 13 13 13 13
5 2 3 7 11 10 14 14 11 6 12 6 3 12 26 26 23 19 16 14 13 11 10 10 11 10 10 12 12 12 13 13 14 15 16 13 14 13 13 14 12 12 11 12 12 12 12 13 12
4 3 4 3 9 16 18 14 12 12 12 11 16 24 29 26 23 20 17 16 13 12 10 10 10 11 10 11 11 12 11 11 11 12 11 12 12 12 14 12 13 12 11 10 8 8 10 9 8
1 2 0 6 13 18 17 13 11 13 11 15 21 25 26 25 21 19 16 14 14 13 11 12 11 11 12 12 12 11 11 11 11 11 10 12 12 11 12 11 10 9 7 6 6 6 5 5 7
5 1 3 9 16 17 16 12 11 11 6 14 22 26 26 22 21 19 17 15 14 12 12 13 12 11 12 12 12 12 12 11 11 11 12 12 12 12 11 10 8 7 6 5 6 8 5 4 5
7 0 7 15 16 13 11 11 13 6 9 17 26 24 21 19 19 17 16 14 14 13 13 13 13 10 12 11 12 12 11 11 12 12 12 11 11 11 10 8 7 6 6 7 7 8 8 7 8
3 4 14 17 18 12 12 15 10 10 17 21 22 20 18 18 19 17 16 15 14 13 14 14 13 12 12 12 11 11 10 12 13 12 10 10 8 8 7 7 6 6 6 6 7 7 8 7 8
10 13 13 16 15 13 14 10 10 15 19 20 20 18 16 17 18 17 16 15 15 14 15 15 14 13 13 12 11 11 11 11 11 10 7 7 7 7 6 5 5 5 5 5 6 6 7 8 8
8 15 14 15 15 6 2 13 10 8 18 20 19 16 15 14 17 16 16 15 15 15 16 15 14 14 13 10 10 10 10 9 8 7 6 6 6 6 6 6 6 4 4 5 6 6 8 7 7
3 10 12 14 10 8 5 4 15 9 8 19 17 16 15 14 17 16 16 14 16 16 16 15 13 13 12 11 9 8 7 8 8 7 6 6 5 5 7 6 5 3 3 4 4 6 4 5 4
5 9 17 15 12 12 8 5 9 11 12 19 18 17 16 16 16 18 17 15 16 16 15 15 13 12 11 9 8 7 8 8 7 7 7 5 5 5 5 5 5 3 3 5 5 4 4 3 3
15 9 10 12 18 13 13 7 10 14 13 18 19 17 17 16 18 19 18 17 16 16 16 15 14 11 10 9 10 10 9 8 7 7 6 5 5 4 4 5 4 2 3 4 3 2 3 5 4
12 15 9 10 15 9 13 10 6 10 14 19 19 19 18 17 17 19 19 19 18 17 16 16 15 12 10 9 10 8 8 8 8 7 6 6 6 6 5 7 5 4 6 3 3 2 1 4 6
9 10 12 16 12 8 14 7 5 3 7 14 20 19 18 19 18 17 20 20 19 19 18 17 16 14 12 10 10 7 8 7 8 8 7 7 7 7 5 6 5 4 3 4 2 3 3 5 4
10 2 4 16 12 4 5 2 4 1 8 14 17 18 17 17 17 18 20 20 20 19 19 17 16 15 13 13 10 10 9 6 8 7 7 7 8 8 7 6 6 5 5 4 3 2 2 4 4
4 3 5 11 8 13 8 3 4 4 11 17 20 21 21 21 19 18 21 23 22 20 19 18 16 15 14 13 10 10 10 6 8 8 6 6 7 7 9 7 6 5 6 5 4 2 2 2 3
0 7 6 6 8 6 12 5 7 8 17 13 19 20 20 21 20 21 22 21 21 19 18 17 17 16 15 14 13 10 6 8 6 7 7 8 8 8 9 9 8 7 5 5 4 4 3 1 2
11 10 6 7 7 2 13 8 7 21 14 18 19 21 20 18 18 18 16 17 19 21 19 18 17 16 16 14 13 11 10 7 6 7 7 7 6 6 9 10 8 8 6 5 4 5 3 2 1
19 15 8 8 11 7 8 6 5 7 8 6 9 22 20 19 18 18 20 19 18 22 20 17 17 15 16 15 14 12 10 9 9 8 6 8 7 7 6 10 9 10 7 6 5 6 7 6 4
15 17 16 11 2 10 12 6 4 5 5 7 14 18 22 22 18 18 18 20 20 21 20 12 15 11 14 15 14 13 11 9 8 6 6 6 5 6 8 10 10 10 11 9 7 8 8 7 8
12 15 16 10 12 12 7 10 6 11 9 4 7 16 19 18 17 15 18 20 19 21 21 10 11 11 10 13 14 12 11 9 8 9 9 6 4 6 6 9 9 9 10 10 8 8 9 9 9
12 12 14 16 15 10 12 12 5 6 10 10 7 4 2 8 12 11 12 16 19 19 19 23 11 8 8 11 13 14 12 9 8 9 9 7 6 7 9 9 11 10 10 10 10 8 7 9 10
18 17 18 13 17 11 12 3 4 6 9 10 9 9 8 7 5 5 12 12 13 20 21 25 18 15 14 10 12 12 12 13 11 11 11 10 9 8 6 6 9 10 10 11 11 11 9 10 10
Wind_Direction
166 218 271 250 239 154 98 90 118 121 133 137 114 124 76 19 16 92 134 140 138 141 140 135 140 125 119 113 101 109 92 96 91 95 92 94 98 98 98 95 97 97 97 97 94 91 90 85 82
178 291 250 279 245 136 93 119 123 127 123 134 132 133 93 73 89 116 129 139 143 137 135 132 124 119 107 103 104 108 99 103 101 100 100 98 102 95 97 100 101 104 100 100 98 91 89 83 84
172 309 333 11 263 112 118 127 120 127 141 140 106 45 39 86 122 114 131 141 141 127 121 134 124 117 109 104 102 105 102 102 104 103 102 103 102 102 106 107 105 102 101 97 95 93 87 83 78
217 208 22 24 125 61 123 130 130 138 138 156 135 90 90 118 111 130 137 142 135 130 119 127 120 113 113 102 96 103 109 105 108 107 109 105 109 109 112 109 99 95 87 86 91 85 81 88 77
201 94 90 145 103 116 122 128 142 149 130 134 282 97 111 106 124 131 136 138 131 128 121 116 109 106 105 107 102 103 106 108 110 110 110 108 112 110 113 108 100 86 80 83 95 84 77 86 81
214 88 194 173 133 123 129 145 153 162 159 119 108 115 98 128 138 137 136 132 132 121 116 114 108 105 105 106 106 106 107 110 110 107 106 107 109 110 116 108 97 87 83 84 87 80 74 80 85
251 201 144 173 142 153 144 164 162 164 161 171 144 124 115 155 138 139 136 132 127 125 115 115 112 104 108 110 111 107 110 109 108 108 108 108 107 108 105 107 98 90 85 83 85 85 79 78 81
292 175 124 207 169 153 146 168 149 159 126 116 150 153 151 147 148 143 139 135 128 124 120 114 112 113 113 103 108 109 110 111 110 109 110 111 106 100 108 114 100 97 94 90 88 89 82 82 77
234 266 154 198 169 157 154 163 161 117 147 151 132 149 143 145 148 151 143 141 138 130 127 123 120 112 108 112 114 106 110 115 108 104 109 110 114 115 110 120 113 106 101 96 90 88 84 75 71
250 221 180 260 179 153 158 156 144 161 137 132 118 117 144 151 156 153 155 148 148 141 137 120 125 119 111 115 118 120 125 115 115 118 116 111 110 108 114 118 114 109 100 94 85 81 78 81 74
195 276 93 164 143 161 149 146 157 158 169 154 143 145 150 157 160 158 156 152 143 146 134 135 130 119 118 119 127 126 125 122 121 119 115 112 109 109 112 110 110 106 96 90 71 55 73 76 70
254 227 242 149 142 153 151 143 154 172 105 155 151 150 154 162 164 162 158 156 144 147 142 138 141 129 123 123 121 123 124 125 123 122 117 115 114 114 112 111 112 110 97 80 65 63 57 77 86
232 334 169 145 132 124 143 154 133 120 133 142 147 153 158 164 162 160 155 151 150 152 148 144 146 134 132 127 123 121 127 123 124 121 119 115 114 112 117 114 113 101 96 83 66 63 67 87 94
323 191 152 149 127 141 157 134 130 128 134 140 151 156 160 162 164 161 161 155 157 152 151 148 148 142 138 130 127 127 127 128 129 124 120 113 116 117 116 118 111 98 88 70 69 67 77 80 96
251 143 147 133 147 144 127 151 132 140 149 151 159 159 157 159 162 166 164 159 159 157 152 152 150 145 139 134 132 126 135 133 135 129 120 113 110 118 119 120 117 98 94 76 79 91 98 94 97
209 155 149 159 146 100 338 159 148 163 161 161 160 160 161 160 161 163 165 161 157 154 156 159 157 154 150 145 140 135 133 140 149 140 132 123 118 118 124 129 134 119 100 94 91 84 93 86 91
258 183 170 161 173 120 63 118 146 177 217 166 167 163 166 163 160 163 165 164 159 159 159 163 158 159 158 155 154 153 144 143 147 146 141 133 130 128 127 120 133 125 109 101 110 97 68 92 76
154 193 162 161 144 128 166 175 177 160 217 182 173 171 171 168 172 167 168 166 166 164 167 169 168 165 167 167 166 168 163 158 155 147 152 140 144 140 139 136 135 136 114 112 94 71 65 58 42
141 263 182 160 149 146 173 150 188 172 210 210 181 179 179 177 173 172 178 174 172 176 179 180 180 182 184 183 182 174 175 166 167 158 157 169 174 173 157 153 145 151 151 92 90 116 61 70 40
195 215 147 89 145 152 158 156 159 194 210 207 194 181 182 179 172 180 185 185 184 182 188 192 193 193 196 197 184 190 188 182 175 176 182 173 182 183 170 167 157 138 144 124 88 34 75 72 41
202 214 160 149 116 64 139 150 186 106 258 219 203 192 193 185 196 184 190 194 192 188 192 195 198 196 198 192 194 189 194 190 196 191 193 187 179 182 173 172 176 157 177 159 134 94 356 75 63
181 167 147 140 170 145 230 207 272 236 217 228 211 211 195 212 199 187 194 196 199 194 193 195 195 195 196 195 201 202 204 211 219 203 196 192 192 191 193 185 180 185 195 175 164 111 72 326 65
38 195 178 177 150 134 193 209 161 242 258 216 206 202 204 203 196 193 197 198 201 196 193 192 190 192 192 196 204 199 216 263 219 200 192 182 188 201 197 192 187 186 181 182 178 164 82 74 42
217 190 159 197 166 198 168 172 171 183 243 220 213 207 210 201 200 199 200 199 203 197 195 189 188 193 193 199 209 221 227 222 227 225 192 198 195 195 197 195 193 184 178 178 188 187 160 77 59
217 199 166 201 203 241 165 209 140 204 203 236 202 207 206 209 202 200 200 203 196 196 194 189 190 194 198 203 210 218 222 242 242 243 242 214 201 199 192 196 200 194 195 194 194 190 197 179 207
204 207 209 185 221 171 142 226 136 142 159 214 217 196 202 208 199 202 173 196 195 197 190 189 184 199 205 207 210 218 218 226 238 235 234 233 204 205 190 196 204 202 203 204 206 209 213 208 221
188 219 229 280 272 236 165 162 163 169 184 204 198 202 202 202 205 204 189 197 189 177 169 168 204 213 219 215 218 222 225 237 247 236 241 217 225 204 202 200 207 210 209 215 212 225 226 223 229
257 212 212 222 236 230 171 196 208 190 190 186 198 188 193 197 199 201 195 184 183 181 175 186 215 196 219 224 228 224 225 231 249 248 237 244 244 233 200 203 208 214 218 224 226 223 223 232 233
196 230 217 238 232 236 228 201 82 146 170 172 146 107 100 181 180 195 194 188 183 170 173 180 193 218 215 214 222 220 219 226 231 242 245 240 246 259 218 215 219 221 226 227 226 238 245 240 242
214 214 205 225 216 246 290 89 91 123 144 160 164 150 141 139 122 171 185 184 175 174 175 179 190 235 225 239 223 210 217 223 232 236 239 241 241 246 234 238 227 221 227 230 226 227 243 240 238